Date,TemperatureHighF,TemperatureAvgF,TemperatureLowF,DewpointHighF,DewpointAvgF,DewpointLowF,HumidityHigh,HumidityAvg,HumidityLow,PressureMaxIn,PressureMinIn,WindSpeedMaxMPH,WindSpeedAvgMPH,GustSpeedMaxMPH,PrecipitationSumIn
2013-1-2,14.7,14.7,14.7,7.9,7.9,7.9,74,74,74,30.08,30.08,1,1,2,0.00
2013-1-4,36.3,25.0,11.5,9.2,5.5,3.3,69,45,32,30.17,30.05,5,3,8,0.00
2013-1-5,17.2,16.9,16.5,3.8,3.0,2.3,55,54,53,30.14,30.13,3,3,4,0.00
2013-1-6,41.7,29.1,16.0,11.7,8.1,3.8,58,43,29,30.23,30.09,7,4,7,0.00
2013-1-7,30.4,30.4,30.4,11.0,11.0,11.0,44,44,44,29.99,29.99,0,0,0,0.00
2013-1-8,39.6,39.3,39.2,16.4,16.3,16.0,39,39,39,29.96,29.96,19,13,19,0.00
2013-1-21,36.7,36.7,36.7,17.3,17.3,17.3,45,45,45,30.13,30.13,6,6,9,0.00
2013-1-22,24.3,24.3,24.3,12.0,12.0,12.0,59,59,59,30.18,30.18,0,0,1,0.00
2013-1-25,53.4,46.7,39.9,36.7,33.2,29.8,67,60,53,30.14,30.09,1,1,2,0.00
2013-1-27,58.3,57.8,57.2,40.2,39.7,39.2,53,51,49,29.88,29.86,8,6,10,0.00
2013-1-30,18.9,17.7,16.5,11.0,10.2,9.4,73,72,71,30.02,29.99,2,2,3,0.00
2013-1-31,35.4,35.4,35.4,19.5,19.5,19.5,52,52,52,30.12,30.12,2,2,2,0.00
2013-2-14,39.9,39.9,39.9,19.7,19.7,19.7,44,44,44,30.01,30.01,10,10,11,0.00
2013-2-15,38.1,33.5,29.0,15.2,11.5,7.8,56,42,28,30.17,30.13,2,2,4,0.00
2013-2-16,56.6,47.8,39.0,17.1,16.3,15.5,38,30,21,30.27,30.15,5,3,5,0.00
2013-3-1,46.0,46.0,46.0,20.5,20.5,20.5,36,36,36,30.18,30.18,8,8,9,0.00
2013-3-8,59.4,49.9,40.5,36.4,30.1,19.4,79,53,21,29.86,29.74,6,5,8,0.08
2013-3-9,37.3,37.3,37.3,32.3,32.3,32.3,82,82,82,29.75,29.75,2,2,2,0.00
2013-3-11,47.7,39.5,31.3,18.5,17.1,15.7,52,42,31,30.06,29.98,6,4,8,0.00
2013-3-26,54.2,49.9,45.6,15.0,12.4,9.9,23,22,21,29.93,29.91,6,4,7,0.00
2013-3-27,37.6,37.6,37.6,9.6,9.6,9.6,31,31,31,29.95,29.95,1,1,2,0.00
2013-3-30,74.1,71.8,67.3,25.0,22.9,20.0,19,16,13,30.02,29.94,6,4,9,0.00
2013-3-31,52.9,52.9,52.9,31.5,31.5,31.5,44,44,44,30.03,30.03,9,9,10,0.00
2013-4-1,51.6,51.6,51.6,24.1,24.1,24.1,34,34,34,29.93,29.93,1,1,2,0.00
2013-4-21,74.0,74.0,74.0,20.0,20.0,20.0,13,13,13,29.96,29.96,7,7,15,0.00
2013-4-22,46.4,46.4,46.4,12.4,12.4,12.4,25,25,25,29.92,29.92,1,1,1,0.00
2013-4-23,64.9,64.9,64.9,21.6,21.6,21.6,19,19,19,29.82,29.82,10,10,13,0.00
2013-4-26,44.8,44.8,44.8,23.1,23.1,23.1,42,42,42,29.98,29.98,2,2,5,0.00
2013-5-21,49.5,47.3,45.1,30.6,30.0,29.5,54,51,48,29.92,29.90,2,1,3,0.00
2013-5-23,95.4,95.4,95.4,21.6,21.6,21.6,7,7,7,29.84,29.84,10,10,14,0.00
2013-5-26,86.4,82.1,77.8,19.1,13.2,7.4,11,8,5,29.98,29.83,12,8,17,0.00
2013-5-27,55.7,55.7,55.7,11.4,11.4,11.4,17,17,17,29.92,29.92,2,2,3,0.00
2013-5-28,84.1,75.1,66.1,21.6,20.0,18.5,16,13,10,29.81,29.78,6,4,9,0.00
2013-6-1,92.3,92.3,92.3,11.6,11.6,11.6,5,5,5,29.94,29.94,3,3,3,0.00
2013-6-11,82.0,82.0,82.0,14.9,14.9,14.9,8,8,8,30.00,30.00,3,3,3,0.00
2013-6-12,85.6,85.6,85.6,17.5,17.5,17.5,8,8,8,30.03,30.03,0,0,1,0.00
2013-6-17,96.1,96.1,96.1,42.6,42.6,42.6,16,16,16,30.08,30.08,5,5,7,0.00
2013-6-19,89.2,89.2,89.2,13.5,13.5,13.5,6,6,6,29.85,29.85,3,3,8,0.00
2013-6-21,89.4,81.6,73.8,37.3,26.6,15.9,16,14,11,30.07,29.95,5,4,6,0.00
2013-6-23,84.9,84.9,84.9,13.9,13.9,13.9,7,7,7,29.86,29.86,2,2,5,0.00
2013-6-24,82.4,72.6,62.8,12.9,10.9,8.6,13,10,6,29.98,29.92,5,3,5,0.00
2013-6-25,96.2,96.2,96.2,25.3,25.3,25.3,8,8,8,30.02,30.02,5,5,5,0.00
2013-6-26,63.3,63.3,63.3,24.8,24.8,24.8,23,23,23,30.04,30.04,2,2,3,0.00
2013-6-27,91.0,91.0,91.0,33.4,33.4,33.4,13,13,13,30.16,30.16,2,2,7,0.00
2013-6-28,103.0,88.9,74.9,44.6,44.2,43.8,33,24,14,30.18,30.12,8,4,12,0.00
2013-6-29,105.4,89.0,69.8,46.9,43.9,40.8,44,24,12,30.17,30.03,8,3,10,0.00
2013-6-30,104.4,83.4,66.9,49.6,46.1,43.1,42,31,14,30.14,30.00,5,2,7,0.00
2013-7-1,69.7,69.7,69.7,52.8,52.8,52.8,55,55,55,30.21,30.21,6,6,12,0.00